Regional Weather Roundup
Issued by NWS Grand Forks, ND

Home | Current Version | Previous Version | Text Only | Print | Product List | Glossary Off
Versions: 1 2 3 4 5 6 7 8 9 10 11 12 13 14 15 16 17 18 19 20 21 22 23 24 25 26 27 28 29 30 31 32 33 34 35 36 37 38 39 40 41 42 43 44 45 46 47 48 49 50

000
ASUS43 KFGF 181110
RWRFGF
PRAIRIE TO PINES  WEATHER ROUNDUP
NATIONAL WEATHER SERVICE EASTERN NORTH DAKOTA/GRAND FORKS ND
600 AM CDT FRI APR 18 2014

 **SATELLITE DATA USED TO AUGMENT SKY COVER AT AUTOMATED STATIONS**
 *****  WEATHER ACROSS EASTERN NORTH DAKOTA  *****

CITY           SKY/WX    TMP DP  RH WIND       PRES   REMARKS
GRAND FORKS    CLOUDY    32  17  54 SE8       30.28S WCI  25
GRAND FRKS AFB CLOUDY    30  20  66 SE7       30.28S WCI  23
GRAND FRKS NWS   N/A     32 N/A N/A SE3         N/A
DEVILS LAKE    MOCLDY    30  16  55 SE13      30.19F WCI  20
FARGO          CLOUDY    35  22  58 SE7       30.27F
WAHPETON ARPT  CLOUDY    32  25  74 SE6       30.28S
$$

 ***** WEATHER ACROSS CENTRAL AND WESTERN NORTH DAKOTA  *****

CITY           SKY/WX    TMP DP  RH WIND       PRES   REMARKS
BISMARCK       CLOUDY    35  22  58 E14G23    30.06F
MINOT          MOCLDY    30  21  69 E14       30.07F WCI  19
JAMESTOWN      MOCLDY    31  21  66 E14       30.17F WCI  21
MINOT AFB      MOCLDY    29  22  74 SE17      30.07F WCI  17
GARRISON         N/A     32  23  69 E16       30.02F WCI  21
WILLISTON      CLOUDY    37  24  59 SE10G18   29.91S
DICKINSON      MOCLDY    31  22  69 SE17      29.88F WCI  19
HETTINGER      CLEAR     29  23  78 E12       29.90S WCI  19
$$

 *****  OTHER AIRPORT OBSERVATIONS IN OUR AREA  *****

CITY           SKY/WX    TMP DP  RH WIND       PRES   REMARKS
WALHALLA       FAIR      25  21  86 CALM      30.29R
GRAFTON AIRPOR FAIR      27  23  86 E7        30.29S WCI  19
VALLEY CITY AR CLOUDY    32  19  59 SE13      30.21F WCI  22
CANDO          CLOUDY    30  18  59 SE16      30.19F WCI  19
CAVALIER APRT  FAIR      27  21  80 SE3       30.29S
GWINNER        MOSUNNY   32  23  69 E13       30.23F WCI  22
ROLLA          PTSUNNY   27  16  63 SE14G20   30.18F WCI  15
 ***** THE ABOVE OBSERVATIONS ARE NON NWS ARE NOT QUALITY
       CONTROLLED AND MAY MIS-REPORT RAIN FOR SNOW...
$$

  *****  WEATHER ACROSS NORTHERN MINNESOTA  *****

CITY           SKY/WX    TMP DP  RH WIND       PRES   REMARKS
FLAG ISLAND    CLEAR     18  12  79 CALM      30.32S
WARROAD        CLEAR     19  10  68 CALM      30.33S
ROSEAU         CLEAR     21  16  79 CALM      30.31S
HALLOCK        CLOUDY    28  19  69 E8        30.29F WCI  20
THF RVR FALLS  PTCLDY    28  12  50 E8        30.30S WCI  20
BAUDETTE       CLEAR     20  15  81 CALM      30.32S
WASKISH        CLEAR     18  16  93 CALM      30.32R
CROOKSTON      CLOUDY    30  18  59 SE7       30.30S WCI  23
$$
  *****  WEATHER ACROSS CENTRAL AND WEST MINNESOTA  *****

CITY           SKY/WX    TMP DP  RH WIND       PRES   REMARKS
FOSSTON        MOCLDY    23  14  68 E5        30.29S WCI  17
BEMIDJI        PTCLDY    20  16  84 CALM      30.29S
PARK RAPIDS    CLOUDY    28  20  71 CALM      30.28R
ELBOW LAKE     CLOUDY    32  25  76 E5        30.27S
WADENA         CLOUDY    27  21  80 CALM      30.28S
DETROIT LAKES  PTCLDY    30  21  69 SE3       30.29S
MOORHEAD       NOT AVBL
FERGUS FALLS   FLURRIES  34  25  69 S6        30.26F
MORRIS MN      MOCLDY    30  27  86 E6        30.28R WCI  24
STAPLES        CLOUDY    27  19  74 CALM      30.29R
$$
  *****  WEATHER ELSEWHERE ACROSS MINNESOTA  *****

CITY           SKY/WX    TMP DP  RH WIND       PRES   REMARKS
DULUTH         MOCLDY    22  17  81 N3        30.31S
INTRNTL FALLS  CLEAR     16  13  88 CALM      30.33R
ELY            CLEAR      9   7  92 CALM      30.33R
CLOQUET        CLOUDY    18  16  93 CALM      30.32S
WHEATON        MOCLDY    30  28  93 SE6       30.29S WCI  24
BRAINERD       CLOUDY    32  22  66 SE3       30.31R
HIBBING        CLEAR     17  13  84 CALM      30.32S
ALEXANDRIA     CLOUDY    32  24  72 NE6       30.28F
SAINT CLOUD    CLOUDY    24  20  84 E3        30.32R
MINNEAPOLIS    PTCLDY    27  26  96 CALM      30.34R
$$

  *****  WEATHER ACROSS SOUTH DAKOTA  *****

CITY           SKY/WX    TMP DP  RH WIND       PRES   REMARKS
SIOUX FALLS    MOCLDY    33  28  81 SE13      30.23S WCI  24
BROOKINGS      NOT AVBL
WATERTOWN      CLOUDY    33  22  63 SE13      30.18F WCI  24
HURON          MOCLDY    35  27  72 SE15G22   30.12F
SISSETON         N/A     32  25  75 SE6       30.24F
ABERDEEN       CLOUDY    35  20  54 E14       30.15F
MITCHELL       CLOUDY    35  28  75 SE20      30.15F WCI  24
PIERRE         CLEAR     36  26  67 E13       29.97F
MOBRIDGE       CLOUDY    36  25  64 SE17      29.98F
RAPID CITY     PTCLDY    32  30  92 CALM      29.83F
$$

  *****  SOME WEATHER IN NEARBY STATES *****

CITY           SKY/WX    TMP DP  RH WIND       PRES   REMARKS
GLASGOW MT     MOCLDY    41  34  76 E21       29.71F
GREAT FALLS MT CLOUDY    45  41  86 S10       29.64F
CHEYENNE WY    CLEAR     36  27  69 CALM      29.99S
SCOTTSBLUFF NE CLEAR     39  33  79 E10       29.92S
OMAHA NE       PTCLDY    32  28  85 CALM      30.27S
DES MOINES IA  PTCLDY    35  29  78 E5        30.32R
DAVENPORT IA   CLEAR     29  26  89 N6        30.33R FOG     WCI  23
CHICAGO IL     PTCLDY    41  33  73 N6        30.28R
EAU CLAIRE WI  CLEAR     23  20  88 CALM      30.35R
LA CROSSE WI   CLEAR     29  25  85 N3        30.36R
$$

  *****  SOME NATIONAL WEATHER *****

CITY           SKY/WX    TMP DP  RH WIND       PRES   REMARKS
LA GUARDIA NY  MOCLDY    35  25  66 E10       30.54R
RALEIGH NC     MOCLDY    39  35  86 N6        30.43S
ATLANTA GA     CLOUDY    54  39  57 E14       30.28S
NEW ORLEANS LA CLOUDY    62  59  90 N12       30.06F
OKLAHOMA CITY  PTCLDY    44  38  79 NE9       30.24S
ALBUQUERQUE NM PTCLDY    48  26  42 N8        30.14S
SALT LAKE CITY CLOUDY    63  26  24 S17       29.82R
LOS ANGELES CA CLOUDY    62  52  69 SE8       29.87S
BOISE ID       CLOUDY    48  40  73 NW5       29.93R
SEATTLE WA     MOCLDY    43  38  82 SW12      29.99R
$$

*** WEATHER ACROSS MANITOBA...SASKATCHEWAN AND ONTARIO ***
                ***ONTARIO***

CITY           SKY/WX    TMP DP  RH WIND       PRES   REMARKS
GERALDTON      LGT SNOW  25  23  93 N2        30.27R
THUNDER BAY    MOCLDY    23  21  93 SW6       30.33R WCI  16
SIOUX LOOKOUT  CLEAR     10   9  92 S2        30.33R
TORONTO        CLOUDY    43  32  65 SE3       30.28R
BIG TROUT LK   CLEAR      3   0  85 W3        30.32S
PICKLE LAKE    PTCLDY    16  -2  45 W6        30.31  WCI   7
DRYDEN         CLEAR     19  18  93 SW3       30.33R
KENORA         CLEAR     18   1  49 SE2       30.32S
$$
                *** MANITOBA***

CITY           SKY/WX    TMP DP  RH WIND       PRES   REMARKS
BRANDON        MOCLDY    28  18  64 E10       30.22F WCI  19
DAUPHIN        CLOUDY    27  14  59 E10       30.22F WCI  17
ISLAND LAKE    PTCLDY     9   5  85 SE2       30.36S
PILOT MOUND      N/A     27  18  69 E14         N/A  WCI  15
THE PAS        PTCLDY    14   5  67 SE8       30.25S WCI   3
THOMPSON       CLEAR      1  -2  85 CALM      30.33R
WINNIPEG       CLEAR     21   9  58 E2        30.32S
LYNN LAKE      CLEAR      3  -6  66 E2        30.26R
CHURCHILL      MOCLDY     5   1  85 W5        30.41R WCI  -4
GILLAM         PTCLDY     3   0  85 N2        30.34S
$$
                ***SASKATCHEWAN***

CITY           SKY/WX    TMP DP  RH WIND       PRES   REMARKS
ESTEVAN        CLOUDY    32  25  74 E17G25    29.97F WCI  21
KINDERSLEY     CLOUDY    36  34  93 SE15      29.68S
LLOYDMINSTER   FLURRIES  30  28  93 E18G24    29.73F WCI  18
PRINCE ALBERT  CLOUDY    27  18  69 E13G21    29.99F WCI  16
REGINA         CLOUDY    34  23  64 SE22G31   29.90F WCI  22
YORKTON        PTCLDY    28  18  64 SE17G28   30.07F WCI  16
N. BATTLEFORD  LGT SNOW  30  30 100 E23G31    29.81F VSB 1   WCI  17
LA RONGE       CLEAR     21   9  58 E10       30.09F WCI  10
SASKATOON      FRZ RAIN  32  27  80 SE22G30   29.86F WCI  19
SWIFT CURRENT  CLOUDY    36  32  87 SE15G23   29.68F
$$
NOTE: THESE ARE AUTOMATED STATIONS WITH LIMITED QUALITY CONTROL
      "FAIR" INDICATES FEW OR NO CLOUDS BELOW 12,000 FEET WITH NO
      SIGNIFICANT WEATHER AND/OR OBSTRUCTIONS TO VISIBILITY.
      SKY/WX - SKY CONDITION AND SIGNIFICANT WEATHER.
      TMP - AIR TEMPERATURE.    DP   - DEWPOINT TEMPERATURE.
      RH  - RELATIVE HUMIDITY.  PRES - PRESSURE.
      HX  - HEAT INDEX.         WCI  - WIND CHILL INDEX.
$



USA.gov is the U.S. government's official web portal to all federal, state and local government web resources and services.